Temp
11 11 11 12 12 12 12 12 12 12 12 12 12 13 13 13 13 13 13 13 13 13 12 12 12 12 12 12 12 12 12 12 12 12 11 11 11 11 11 11 11 11 11 11 11 11 12 12 12 11 11 11 11 11 12 12 12 12 12 12 12 12 11 11 10 10 10 10 10
12 11 11 11 12 12 12 11 12 12 12 12 12 12 12 12 12 12 12 12 12 12 12 12 12 12 12 12 12 12 12 12 12 12 12 11 11 11 11 11 11 11 11 11 11 11 11 11 11 12 11 11 11 11 11 12 12 12 12 11 11 11 11 11 10 10 10 10 10
12 12 12 11 11 11 11 11 11 11 11 12 12 12 12 12 12 12 12 12 12 12 12 12 12 12 12 11 11 11 12 12 12 12 11 11 11 11 11 11 11 11 11 11 11 11 11 11 11 11 11 11 11 11 11 11 11 11 11 11 11 11 11 11 11 10 10 10 10
12 12 12 12 12 11 11 11 11 11 11 11 12 12 12 12 12 12 12 12 12 12 12 12 12 12 12 12 12 12 12 12 12 12 11 11 11 11 11 11 10 10 10 10 10 10 11 11 11 11 11 11 11 11 11 11 11 11 11 11 11 11 11 11 11 11 11 10 10
12 12 12 12 12 12 12 12 12 12 12 12 12 12 12 12 12 12 12 12 12 12 12 12 12 12 12 12 12 12 12 12 12 12 12 11 11 11 10 10 10 10 10 10 10 10 10 10 10 10 11 11 11 11 11 11 11 10 10 10 10 10 10 10 11 11 11 11 11
12 12 12 12 12 12 12 12 12 12 12 12 12 12 12 12 12 12 12 12 12 12 13 13 13 12 12 12 12 12 12 12 12 12 12 12 11 11 11 11 10 10 10 10 10 10 10 10 10 10 10 10 10 10 10 10 10 10 10 10 10 10 10 10 10 10 10 10 11
12 12 12 12 12 12 12 12 12 12 12 12 12 12 12 12 12 12 12 12 12 12 12 13 13 13 12 12 12 12 12 12 12 12 12 12 11 11 11 11 11 11 10 10 10 10 10 10 10 10 10 10 10 10 10 10 10 10 10 10 10 10 10 10 10 10 10 10 10
12 12 12 12 12 12 12 12 12 12 12 12 12 12 12 12 12 12 12 12 12 12 12 12 12 12 12 12 12 12 12 12 12 12 12 11 11 11 11 11 11 11 11 10 10 10 10 10 10 10 10 10 10 10 10 10 10 10 10 9 9 10 10 10 10 10 10 10 10
12 12 12 12 12 12 12 12 12 12 12 12 12 12 12 12 12 12 12 12 12 12 12 12 12 12 12 12 12 12 12 12 12 12 12 11 11 11 11 11 11 11 11 11 10 10 10 10 10 10 10 10 10 10 10 10 10 10 10 10 9 9 10 10 10 10 10 10 10
12 12 12 12 12 12 12 12 12 12 12 12 12 12 12 12 12 12 12 12 12 12 12 12 12 12 12 12 12 12 12 12 12 12 12 11 11 11 11 11 11 11 11 10 10 10 10 10 10 10 10 10 10 10 10 10 10 10 10 10 10 10 10 10 10 10 10 10 9
12 12 12 12 12 12 12 12 12 12 12 12 12 12 12 12 12 12 12 12 12 12 12 12 12 11 11 11 12 12 12 12 12 12 12 11 11 11 11 11 11 11 11 10 10 10 10 10 10 10 10 10 10 10 10 10 10 10 10 10 10 10 10 10 10 10 10 10 9
12 12 12 12 12 12 12 12 12 12 12 11 11 11 11 11 11 11 11 11 11 11 11 11 11 11 11 11 11 11 11 11 11 11 11 11 11 11 11 11 11 11 10 10 10 10 10 10 10 10 10 10 10 10 10 10 10 9 9 9 9 9 9 9 10 10 9 9 9
11 11 11 11 11 11 11 11 11 11 11 11 11 11 11 11 11 11 11 11 11 11 11 11 11 11 11 11 11 11 11 11 11 11 11 11 11 11 11 11 11 11 11 10 10 10 10 10 10 10 10 10 10 9 9 9 9 9 9 9 9 9 9 9 9 9 9 9 9
11 11 11 11 11 11 11 11 11 11 11 11 11 11 11 11 11 11 11 11 11 11 11 11 11 11 11 11 11 11 11 11 11 11 11 11 11 11 11 11 11 11 11 11 11 11 10 10 10 10 10 10 10 10 9 9 9 9 9 9 9 9 9 9 9 9 9 9 9
11 11 11 11 11 11 11 11 11 11 11 11 11 11 11 11 11 11 11 11 11 11 11 11 11 11 11 11 11 11 11 11 11 11 11 11 11 11 11 11 11 11 11 11 11 11 11 11 11 10 10 10 10 10 10 9 9 9 9 9 9 9 9 9 9 9 9 9 9
11 11 11 11 11 11 11 11 11 11 11 11 11 11 11 11 11 10 10 10 10 10 10 10 10 10 10 10 10 10 10 10 10 10 11 11 11 11 11 10 10 10 10 10 11 11 11 11 11 11 11 10 10 10 10 10 9 9 9 9 9 9 9 9 9 9 9 9 9
10 10 10 10 10 10 10 10 10 10 10 10 10 10 10 10 10 10 10 10 10 10 10 10 10 10 10 10 10 10 10 10 10 10 10 10 10 10 10 10 10 10 10 10 10 10 10 10 10 10 10 10 10 10 10 10 9 9 9 9 9 9 9 9 9 9 9 9 9
10 10 10 10 10 10 10 10 10 10 10 10 10 10 10 10 10 10 10 10 10 10 10 10 10 10 10 10 10 10 10 10 10 10 10 10 10 10 10 10 10 10 10 10 10 10 10 10 10 10 10 10 10 10 10 9 9 9 9 9 9 9 9 9 9 9 9 9 9
9 9 9 9 9 9 9 9 9 9 9 9 10 10 10 10 10 10 10 10 10 10 10 10 10 10 10 10 10 10 10 9 9 9 9 9 9 9 10 9 9 9 9 9 9 9 9 9 9 10 10 9 9 9 9 9 9 9 9 9 9 9 9 8 9 9 9 9 9
9 9 9 9 9 9 9 9 9 9 9 9 9 9 9 9 9 9 9 9 9 10 10 10 10 10 10 10 10 9 9 9 9 9 9 9 9 9 9 9 9 9 9 9 9 9 9 9 9 9 9 9 9 9 9 9 9 9 9 8 8 8 8 8 8 8 9 9 9
9 9 9 9 9 9 9 9 9 9 9 9 9 9 9 9 9 9 9 9 9 9 9 9 9 9 9 9 9 9 9 9 9 9 9 9 9 9 9 9 9 9 9 9 9 9 9 9 8 8 8 9 9 9 8 8 8 8 8 8 8 8 8 8 8 8 8 9 9
9 9 9 9 9 9 9 9 9 9 9 9 9 9 9 9 9 9 9 9 9 9 9 9 9 9 9 9 9 9 9 9 9 9 9 9 9 9 9 9 9 8 8 9 9 8 8 8 8 8 8 8 8 8 8 8 8 8 8 8 8 8 8 8 8 8 8 8 8
9 9 9 9 9 9 9 9 9 9 9 9 9 9 9 9 9 9 9 9 9 9 9 9 9 9 9 9 9 9 9 9 9 9 9 9 9 9 9 8 8 8 8 8 8 8 8 8 8 8 8 8 8 8 8 8 8 8 8 8 8 8 8 8 8 8 8 8 8
9 9 9 9 9 9 9 9 9 9 9 9 9 9 9 9 9 9 9 9 9 9 9 9 9 9 9 9 9 9 9 9 9 9 9 9 9 8 8 8 8 8 8 8 8 8 8 8 8 8 8 7 7 7 7 7 7 7 7 7 7 7 8 8 8 8 8 7 7
9 9 9 9 9 9 9 9 9 9 9 9 9 9 9 9 9 9 9 9 9 9 9 8 8 8 8 8 8 8 8 9 9 9 9 9 8 8 8 8 8 8 8 8 8 8 8 8 8 7 7 7 7 7 7 7 7 7 7 7 7 7 7 7 7 7 7 7 7
9 9 9 9 9 9 9 8 9 9 8 8 9 9 9 9 9 9 9 9 9 9 8 8 8 8 8 8 8 8 8 8 8 8 8 8 8 8 8 8 8 8 8 8 8 8 8 8 7 7 7 7 7 7 6 7 7 7 6 6 6 6 6 6 6 7 7 7 7
8 8 8 8 8 8 8 8 8 8 8 8 8 8 8 8 8 8 8 8 8 8 8 8 8 8 8 8 8 8 8 8 8 8 8 8 8 8 8 8 8 8 8 8 8 8 7 7 7 7 7 6 6 6 6 6 6 6 6 6 6 6 5 5 6 6 6 6 6
8 8 8 8 8 8 8 8 8 8 8 8 8 8 8 8 8 8 8 8 8 8 8 8 8 8 8 8 8 8 8 8 8 8 8 8 8 8 8 8 8 8 8 8 8 7 7 7 7 7 6 6 6 6 6 6 6 6 6 5 5 5 5 5 5 5 5 5 5
7 7 7 7 7 7 7 7 7 7 7 7 7 7 7 7 8 8 8 8 8 8 8 8 8 8 8 8 8 8 7 7 7 7 7 8 8 8 7 7 8 8 8 8 8 7 7 7 7 7 6 6 6 6 6 6 6 5 5 5 5 5 5 5 4 4 4 4 4
7 7 7 7 7 7 7 7 7 7 7 7 7 7 7 7 7 7 7 7 7 7 7 7 7 7 7 7 7 7 7 7 7 7 7 7 7 7 7 7 7 7 7 7 7 7 7 7 7 7 6 6 6 6 5 5 5 5 5 5 5 5 5 5 4 4 4 4 4
6 6 6 6 6 6 6 6 6 6 6 6 7 7 7 7 7 7 7 7 7 7 6 6 7 7 7 7 7 7 7 7 7 7 7 7 7 7 7 7 7 7 7 7 7 7 7 7 7 6 6 6 6 5 5 5 5 5 5 5 5 5 5 5 4 4 4 4 4
6 6 6 6 6 6 6 6 6 6 6 6 6 6 6 6 6 6 6 6 6 6 6 6 6 6 6 6 6 7 7 7 6 6 6 6 6 6 7 7 7 6 6 7 7 7 7 7 7 6 6 6 6 5 5 5 5 5 5 5 5 5 5 5 4 4 4 4 4
6 6 6 6 6 6 6 6 6 6 6 6 6 6 6 6 6 6 6 6 6 6 6 6 6 6 6 6 6 6 6 6 6 6 6 6 6 6 6 6 6 6 6 6 6 7 7 7 7 6 6 6 5 5 5 5 5 5 5 5 5 5 5 5 5 4 4 4 4
5 6 6 6 6 6 6 6 6 6 6 6 6 6 6 6 6 6 6 6 6 6 6 6 6 5 5 5 5 5 5 5 6 6 6 5 5 6 6 6 6 6 6 6 6 6 7 7 7 6 6 6 5 5 5 5 5 5 5 5 5 5 5 5 5 4 4 4 4
5 6 6 6 6 6 6 6 6 6 6 6 6 6 6 6 6 6 6 6 6 6 6 6 5 5 5 5 5 5 5 5 5 5 5 5 5 5 5 6 6 6 6 6 6 6 6 6 7 6 6 5 5 5 5 5 5 5 5 5 5 5 5 5 5 4 4 4 4
5 5 6 6 6 6 6 6 6 6 6 6 6 6 6 6 6 6 5 5 5 5 5 5 5 5 5 5 4 4 4 4 4 4 5 5 5 5 5 5 5 5 5 5 5 5 5 6 6 6 6 5 5 5 5 5 4 4 4 4 5 5 5 4 4 4 4 4 4
5 5 5 5 6 6 6 6 6 6 6 6 5 5 5 5 5 5 5 4 4 4 4 4 4 4 4 4 4 4 4 4 4 4 4 4 4 4 4 5 5 5 5 5 5 4 5 5 5 5 5 5 5 5 5 5 4 4 4 4 4 4 4 4 4 4 4 4 4
5 5 5 5 5 5 5 5 5 5 5 5 5 5 5 5 5 4 4 3 3 3 3 3 3 3 4 4 4 4 4 4 4 3 4 4 4 4 4 4 4 5 5 5 4 4 4 4 4 4 4 4 4 4 5 4 4 4 4 4 4 4 4 4 4 4 4 4 4
4 4 4 4 4 4 4 4 4 4 4 4 4 4 4 3 3 3 3 2 2 2 2 2 2 3 3 3 3 3 4 4 4 4 4 4 4 4 4 4 4 4 4 4 4 4 4 4 4 4 4 4 4 4 4 4 4 4 3 3 3 4 4 4 4 4 4 4 4
4 4 4 3 3 3 3 3 3 3 3 2 2 2 2 2 2 2 2 1 1 1 1 1 1 1 2 2 2 2 3 3 3 4 3 4 4 4 4 4 4 4 4 4 4 3 3 3 3 4 3 3 3 3 4 4 4 4 3 3 3 3 3 4 4 4 4 4 4
3 3 3 3 3 2 2 2 2 2 2 1 1 1 1 1 1 1 0 0 -0 -0 -0 -0 -0 0 0 1 1 1 2 2 3 3 3 3 3 3 3 3 4 4 4 4 3 3 3 3 3 3 3 3 3 3 3 3 3 3 3 3 3 3 3 3 4 4 4 4 4
Height
1494 1495 1495 1495 1495 1496 1496 1497 1497 1497 1497 1497 1496 1496 1496 1496 1496 1497 1497 1497 1498 1498 1498 1498 1499 1499 1499 1499 1499 1499 1499 1499 1499 1498 1498 1498 1498 1497 1497 1497 1496 1496 1495 1495 1495 1494 1494 1494 1493 1493 1492 1492 1491 1490 1490 1491 1491 1492 1493 1494 1495 1495 1497 1498 1500 1501 1501 1501 1502
1494 1494 1494 1494 1495 1495 1496 1496 1496 1496 1496 1496 1496 1496 1496 1496 1496 1496 1496 1496 1497 1497 1497 1497 1497 1498 1498 1498 1498 1498 1498 1497 1497 1497 1496 1496 1496 1496 1495 1495 1495 1495 1494 1494 1493 1493 1492 1492 1492 1491 1491 1490 1490 1489 1489 1490 1490 1491 1491 1492 1493 1494 1495 1496 1498 1499 1499 1500 1500
1493 1493 1493 1494 1494 1495 1495 1495 1495 1496 1496 1495 1495 1495 1495 1495 1495 1495 1495 1496 1496 1496 1496 1496 1496 1496 1496 1496 1496 1496 1496 1496 1496 1495 1495 1495 1494 1494 1494 1494 1493 1493 1493 1492 1492 1491 1491 1491 1490 1490 1490 1489 1489 1488 1488 1488 1489 1489 1490 1490 1491 1492 1492 1494 1495 1496 1497 1497 1498
1493 1493 1493 1494 1494 1494 1495 1495 1495 1495 1495 1495 1495 1495 1495 1495 1495 1495 1495 1495 1495 1495 1495 1495 1495 1495 1495 1495 1495 1495 1495 1495 1494 1494 1494 1493 1493 1493 1492 1492 1492 1492 1491 1491 1490 1490 1490 1490 1489 1489 1488 1488 1488 1487 1487 1487 1488 1488 1488 1489 1489 1490 1490 1491 1492 1493 1494 1495 1496
1492 1493 1493 1493 1494 1494 1494 1495 1495 1495 1495 1495 1495 1495 1495 1495 1495 1495 1494 1494 1494 1494 1494 1494 1494 1494 1494 1494 1494 1493 1493 1493 1493 1492 1492 1491 1491 1491 1491 1491 1490 1490 1490 1490 1490 1489 1489 1488 1488 1487 1487 1486 1486 1486 1486 1486 1486 1487 1487 1487 1488 1488 1489 1489 1490 1491 1492 1493 1494
1492 1492 1493 1493 1494 1494 1494 1494 1495 1495 1495 1495 1495 1495 1495 1495 1494 1494 1494 1493 1493 1493 1493 1492 1492 1492 1492 1492 1492 1492 1492 1492 1491 1491 1490 1490 1490 1490 1489 1489 1489 1489 1489 1488 1488 1488 1488 1488 1487 1486 1485 1485 1485 1485 1485 1485 1485 1485 1485 1486 1486 1487 1488 1488 1489 1489 1490 1491 1491
1492 1492 1493 1493 1493 1493 1494 1494 1494 1494 1494 1494 1494 1494 1494 1494 1493 1493 1492 1492 1492 1491 1491 1491 1491 1491 1491 1491 1491 1491 1490 1490 1490 1490 1489 1489 1488 1488 1488 1488 1488 1487 1487 1487 1487 1487 1487 1487 1486 1485 1485 1485 1484 1484 1484 1484 1484 1484 1484 1485 1485 1486 1487 1487 1487 1488 1488 1489 1490
1492 1492 1492 1493 1493 1493 1493 1493 1493 1493 1493 1493 1493 1493 1493 1493 1492 1492 1492 1491 1491 1491 1490 1490 1490 1489 1489 1489 1489 1489 1489 1489 1489 1489 1488 1488 1487 1487 1487 1486 1486 1486 1486 1486 1486 1486 1485 1485 1485 1485 1484 1484 1484 1484 1484 1483 1483 1483 1484 1484 1484 1485 1485 1486 1486 1486 1487 1487 1488
1492 1492 1492 1492 1492 1492 1492 1492 1493 1493 1493 1493 1493 1492 1492 1492 1491 1491 1491 1490 1490 1490 1490 1490 1489 1489 1488 1488 1487 1487 1487 1487 1487 1487 1487 1486 1486 1486 1485 1485 1485 1485 1485 1485 1485 1484 1484 1484 1484 1483 1483 1483 1483 1483 1483 1483 1482 1482 1483 1483 1483 1483 1484 1484 1484 1485 1485 1485 1486
1492 1492 1492 1492 1492 1492 1492 1492 1492 1492 1492 1492 1492 1491 1491 1491 1490 1490 1490 1490 1490 1489 1489 1489 1488 1488 1487 1487 1486 1485 1485 1485 1485 1485 1485 1485 1485 1485 1484 1484 1484 1484 1484 1484 1483 1483 1483 1482 1482 1482 1482 1481 1481 1481 1481 1481 1481 1481 1481 1481 1482 1482 1482 1482 1482 1482 1483 1483 1484
1491 1491 1492 1492 1492 1492 1492 1491 1491 1491 1491 1491 1491 1490 1490 1490 1490 1489 1489 1489 1488 1488 1488 1488 1487 1487 1486 1485 1485 1484 1484 1483 1483 1482 1482 1483 1483 1483 1483 1483 1482 1482 1482 1482 1482 1481 1481 1481 1480 1480 1480 1480 1480 1480 1480 1480 1480 1479 1479 1480 1480 1480 1480 1480 1480 1480 1481 1481 1481
1491 1491 1491 1491 1491 1491 1491 1491 1491 1490 1490 1490 1490 1490 1489 1489 1488 1488 1488 1487 1487 1486 1486 1486 1485 1485 1485 1484 1483 1483 1482 1482 1481 1480 1480 1480 1480 1480 1481 1481 1481 1480 1480 1480 1480 1480 1479 1479 1479 1479 1478 1478 1478 1478 1478 1478 1478 1477 1477 1478 1478 1478 1478 1478 1478 1479 1479 1479 1479
1491 1491 1491 1490 1490 1490 1490 1490 1490 1490 1489 1489 1489 1488 1488 1487 1487 1487 1486 1486 1485 1485 1484 1484 1484 1483 1483 1482 1482 1481 1480 1480 1480 1479 1479 1478 1478 1478 1478 1478 1478 1478 1478 1478 1477 1477 1477 1477 1477 1477 1477 1476 1476 1476 1476 1476 1476 1476 1475 1475 1476 1476 1476 1476 1476 1477 1477 1477 1477
1490 1490 1490 1490 1490 1490 1489 1489 1489 1489 1488 1488 1487 1487 1487 1486 1486 1485 1485 1485 1484 1483 1483 1482 1482 1481 1481 1480 1480 1479 1479 1478 1478 1477 1477 1476 1476 1476 1476 1475 1475 1476 1475 1475 1475 1475 1475 1475 1475 1475 1474 1474 1474 1474 1474 1474 1474 1474 1474 1474 1474 1474 1474 1475 1475 1475 1475 1475 1475
1490 1490 1490 1489 1489 1489 1489 1488 1488 1488 1487 1487 1486 1486 1485 1485 1485 1484 1484 1483 1482 1482 1481 1481 1480 1479 1479 1478 1478 1477 1477 1476 1476 1475 1475 1475 1474 1474 1474 1473 1473 1473 1473 1473 1472 1472 1472 1472 1472 1472 1472 1471 1471 1471 1471 1471 1471 1471 1471 1471 1472 1472 1472 1472 1472 1472 1473 1473 1473
1489 1489 1489 1489 1488 1488 1488 1487 1487 1487 1486 1486 1485 1485 1484 1484 1483 1483 1482 1481 1481 1480 1480 1479 1479 1478 1477 1476 1476 1475 1475 1474 1474 1473 1473 1473 1472 1472 1472 1471 1471 1471 1470 1470 1470 1469 1469 1469 1469 1469 1469 1469 1469 1468 1469 1469 1469 1469 1469 1469 1469 1470 1470 1470 1470 1470 1470 1470 1470
1488 1488 1488 1488 1487 1487 1487 1486 1486 1485 1485 1485 1484 1484 1483 1483 1482 1481 1481 1480 1480 1479 1478 1477 1477 1476 1475 1475 1474 1474 1473 1472 1472 1471 1471 1470 1470 1470 1470 1469 1469 1469 1468 1468 1467 1467 1466 1466 1466 1466 1466 1466 1466 1465 1466 1466 1466 1466 1466 1466 1467 1467 1467 1467 1467 1467 1467 1467 1468
1487 1487 1487 1486 1486 1486 1485 1485 1485 1484 1484 1483 1483 1482 1482 1481 1480 1480 1480 1479 1478 1477 1476 1476 1475 1474 1474 1473 1472 1472 1471 1470 1470 1470 1469 1468 1468 1467 1467 1467 1466 1466 1466 1465 1465 1465 1464 1464 1464 1464 1464 1463 1463 1463 1463 1463 1463 1463 1464 1464 1464 1464 1464 1464 1464 1464 1464 1465 1465
1486 1485 1485 1485 1485 1484 1484 1483 1483 1482 1482 1481 1481 1480 1480 1480 1479 1479 1478 1477 1477 1476 1475 1474 1473 1473 1472 1471 1470 1470 1469 1469 1468 1468 1467 1467 1466 1465 1465 1465 1464 1464 1463 1463 1463 1462 1462 1462 1461 1461 1461 1461 1461 1461 1461 1461 1461 1461 1461 1461 1461 1461 1462 1462 1462 1462 1462 1462 1462
1484 1484 1484 1483 1483 1482 1482 1481 1481 1481 1480 1480 1479 1479 1478 1478 1477 1477 1476 1476 1475 1474 1474 1473 1472 1471 1470 1470 1469 1468 1467 1467 1466 1465 1465 1465 1464 1464 1463 1463 1462 1461 1461 1460 1460 1460 1460 1460 1459 1459 1459 1459 1459 1459 1459 1458 1459 1459 1459 1459 1459 1459 1459 1459 1459 1459 1459 1459 1459
1483 1483 1482 1482 1481 1481 1480 1480 1480 1479 1479 1478 1478 1477 1477 1476 1476 1475 1475 1474 1474 1473 1472 1471 1470 1469 1469 1468 1467 1466 1466 1465 1464 1464 1463 1463 1462 1462 1461 1461 1460 1459 1459 1458 1458 1457 1457 1457 1457 1457 1457 1457 1456 1456 1456 1456 1456 1456 1456 1456 1456 1456 1456 1456 1456 1456 1456 1455 1455
1482 1482 1481 1481 1480 1480 1479 1479 1478 1478 1477 1477 1476 1476 1475 1475 1474 1474 1473 1472 1472 1471 1470 1469 1469 1468 1467 1466 1465 1465 1464 1463 1463 1462 1461 1460 1460 1460 1459 1459 1458 1457 1457 1456 1455 1455 1455 1455 1454 1454 1454 1454 1454 1454 1454 1454 1454 1454 1453 1453 1453 1453 1453 1453 1453 1453 1453 1452 1452
1482 1481 1481 1480 1480 1479 1479 1478 1477 1477 1476 1475 1475 1474 1474 1473 1472 1471 1471 1470 1470 1469 1468 1467 1467 1466 1465 1465 1464 1463 1462 1462 1461 1460 1459 1459 1458 1457 1457 1457 1456 1455 1455 1454 1454 1453 1453 1452 1452 1452 1452 1451 1451 1451 1451 1451 1451 1451 1450 1450 1450 1450 1450 1450 1450 1450 1450 1450 1450
1480 1480 1480 1479 1479 1478 1477 1477 1476 1475 1475 1474 1473 1472 1472 1471 1470 1469 1469 1468 1467 1466 1465 1465 1465 1464 1464 1463 1462 1461 1461 1460 1459 1458 1457 1457 1456 1455 1455 1454 1454 1453 1453 1452 1452 1451 1451 1451 1450 1450 1450 1449 1449 1449 1448 1448 1448 1448 1448 1448 1447 1447 1447 1447 1447 1447 1447 1446 1446
1479 1478 1478 1477 1477 1476 1475 1475 1474 1474 1473 1472 1471 1470 1470 1469 1468 1467 1466 1465 1465 1464 1463 1462 1462 1461 1461 1460 1460 1459 1459 1458 1457 1456 1455 1454 1454 1453 1452 1451 1451 1450 1450 1450 1450 1449 1449 1449 1449 1448 1448 1447 1447 1446 1446 1445 1445 1445 1445 1445 1445 1444 1444 1444 1444 1444 1444 1444 1444
1477 1476 1476 1475 1475 1474 1473 1473 1472 1471 1470 1470 1469 1468 1467 1466 1465 1465 1464 1463 1462 1461 1461 1460 1459 1459 1458 1458 1457 1457 1456 1455 1455 1454 1453 1452 1451 1450 1450 1449 1448 1448 1447 1447 1447 1447 1447 1447 1447 1446 1446 1445 1445 1444 1443 1443 1443 1443 1443 1442 1442 1442 1441 1441 1440 1440 1441 1441 1441
1475 1475 1474 1473 1472 1472 1471 1470 1469 1469 1468 1467 1466 1465 1465 1464 1463 1462 1461 1460 1460 1459 1458 1457 1456 1456 1455 1455 1454 1454 1453 1453 1452 1451 1450 1450 1449 1448 1447 1446 1445 1445 1445 1444 1444 1444 1444 1444 1444 1444 1444 1444 1443 1442 1441 1441 1440 1440 1440 1440 1439 1439 1439 1438 1438 1438 1438 1438 1438
1473 1472 1471 1471 1470 1469 1469 1468 1467 1466 1465 1464 1463 1463 1462 1461 1460 1460 1459 1458 1457 1456 1456 1455 1454 1453 1452 1452 1451 1451 1450 1450 1449 1449 1448 1447 1446 1445 1444 1443 1443 1442 1442 1442 1441 1441 1441 1442 1442 1442 1442 1441 1440 1440 1439 1439 1438 1438 1437 1437 1437 1436 1436 1436 1436 1436 1436 1435 1435
1471 1470 1469 1469 1468 1467 1466 1465 1465 1464 1463 1462 1461 1460 1460 1459 1458 1457 1456 1455 1455 1454 1453 1452 1451 1450 1450 1449 1448 1448 1447 1447 1446 1445 1445 1444 1443 1443 1442 1441 1440 1439 1439 1439 1439 1439 1439 1439 1439 1439 1439 1439 1438 1438 1437 1436 1436 1435 1435 1435 1434 1434 1434 1434 1434 1434 1433 1433 1433
1469 1468 1467 1466 1465 1465 1464 1463 1462 1461 1460 1459 1459 1458 1457 1456 1455 1455 1454 1453 1452 1451 1450 1450 1448 1448 1447 1446 1445 1445 1444 1444 1443 1443 1442 1441 1441 1440 1439 1439 1438 1437 1436 1436 1435 1435 1435 1436 1436 1437 1437 1436 1436 1435 1435 1434 1434 1433 1433 1432 1432 1432 1431 1431 1431 1431 1431 1430 1430
1466 1465 1465 1464 1463 1462 1461 1460 1459 1458 1457 1456 1455 1455 1454 1453 1452 1451 1450 1450 1449 1448 1447 1446 1445 1445 1444 1443 1442 1442 1441 1441 1440 1440 1440 1439 1438 1437 1437 1436 1435 1435 1434 1433 1433 1432 1432 1433 1433 1434 1434 1434 1433 1433 1432 1432 1431 1431 1430 1430 1430 1430 1430 1429 1429 1429 1429 1428 1428
1464 1463 1462 1461 1460 1459 1458 1457 1456 1455 1455 1454 1453 1452 1451 1450 1449 1448 1448 1447 1446 1445 1444 1443 1442 1441 1440 1440 1439 1439 1438 1438 1437 1437 1436 1436 1435 1435 1434 1433 1433 1432 1431 1431 1430 1430 1429 1430 1430 1430 1431 1431 1431 1430 1430 1429 1429 1428 1428 1428 1428 1427 1427 1427 1427 1426 1426 1426 1426
1461 1460 1459 1458 1457 1456 1455 1455 1454 1453 1452 1451 1450 1450 1449 1448 1447 1446 1445 1445 1444 1443 1442 1441 1440 1439 1438 1437 1436 1435 1435 1435 1434 1434 1434 1433 1432 1432 1431 1430 1430 1429 1429 1428 1428 1427 1426 1426 1427 1427 1428 1428 1428 1428 1427 1427 1426 1426 1426 1425 1425 1425 1425 1425 1425 1424 1424 1424 1424
1458 1457 1457 1456 1455 1454 1453 1452 1452 1451 1450 1449 1449 1448 1447 1446 1445 1444 1444 1443 1442 1441 1440 1439 1438 1437 1436 1435 1434 1433 1432 1431 1431 1431 1431 1430 1430 1429 1428 1427 1426 1426 1426 1425 1425 1424 1424 1424 1424 1424 1425 1425 1425 1425 1424 1424 1424 1423 1423 1423 1423 1423 1423 1423 1422 1422 1422 1422 1422
1456 1455 1454 1454 1453 1452 1451 1450 1450 1449 1448 1447 1447 1446 1445 1445 1444 1443 1442 1441 1440 1439 1438 1437 1436 1435 1434 1433 1432 1431 1430 1429 1428 1428 1428 1427 1427 1426 1425 1424 1423 1423 1423 1423 1422 1422 1421 1421 1421 1421 1421 1422 1422 1421 1421 1421 1421 1420 1420 1420 1420 1420 1420 1420 1420 1420 1420 1420 1420
1454 1453 1452 1452 1451 1450 1450 1449 1448 1447 1446 1445 1445 1444 1443 1442 1441 1440 1440 1439 1437 1436 1435 1434 1434 1433 1432 1431 1430 1429 1428 1427 1426 1425 1425 1424 1424 1423 1422 1421 1420 1420 1420 1420 1420 1419 1418 1418 1418 1418 1418 1419 1418 1418 1418 1418 1418 1417 1417 1417 1417 1417 1417 1418 1418 1417 1417 1417 1417
1453 1452 1451 1450 1449 1448 1448 1447 1446 1445 1444 1443 1442 1441 1440 1440 1439 1438 1437 1436 1435 1433 1432 1431 1431 1430 1429 1428 1427 1426 1425 1425 1424 1422 1421 1421 1420 1420 1419 1418 1417 1417 1417 1417 1417 1416 1415 1415 1415 1415 1415 1415 1415 1415 1415 1415 1414 1414 1414 1414 1414 1414 1415 1415 1415 1415 1415 1415 1415
1451 1450 1450 1448 1447 1446 1445 1445 1444 1442 1441 1440 1440 1439 1438 1437 1436 1435 1434 1433 1432 1431 1430 1429 1428 1427 1426 1425 1424 1423 1422 1422 1421 1420 1419 1418 1417 1417 1415 1415 1414 1414 1414 1414 1414 1413 1413 1412 1412 1412 1412 1412 1412 1412 1411 1411 1411 1411 1411 1411 1411 1411 1411 1412 1412 1412 1412 1412 1412
1450 1449 1448 1447 1445 1445 1443 1442 1441 1440 1439 1438 1437 1436 1435 1435 1433 1432 1432 1431 1430 1428 1427 1426 1425 1424 1423 1422 1421 1420 1419 1418 1418 1417 1416 1415 1414 1414 1413 1411 1410 1410 1410 1410 1410 1410 1410 1409 1409 1409 1409 1409 1409 1409 1408 1408 1408 1408 1408 1408 1408 1408 1408 1408 1409 1409 1409 1409 1409
1449 1447 1446 1445 1444 1443 1441 1440 1439 1438 1437 1436 1435 1434 1433 1432 1431 1430 1429 1428 1427 1426 1425 1424 1422 1421 1420 1419 1418 1416 1415 1415 1414 1414 1413 1412 1411 1410 1409 1408 1407 1406 1406 1407 1407 1407 1407 1406 1406 1406 1406 1406 1406 1406 1405 1405 1404 1404 1404 1405 1405 1405 1405 1405 1405 1405 1405 1405 1406
1447 1446 1445 1443 1442 1441 1440 1439 1438 1437 1436 1435 1434 1432 1431 1430 1429 1428 1427 1426 1425 1425 1423 1421 1420 1419 1418 1417 1415 1414 1412 1411 1410 1410 1409 1408 1407 1406 1406 1405 1404 1403 1403 1403 1404 1404 1403 1403 1403 1403 1403 1403 1402 1402 1402 1402 1401 1400 1400 1401 1402 1402 1402 1402 1402 1402 1402 1403 1403
Wind_Speed
8 8 7 7 7 7 8 8 8 8 8 9 9 10 10 12 13 15 16 17 19 19 20 21 21 22 22 23 25 26 27 28 28 29 28 28 27 26 27 27 27 27 27 27 26 26 27 28 27 26 25 23 23 23 24 24 24 25 27 30 32 32 31 27 24 23 23 22 22
6 6 6 7 7 8 8 9 10 10 10 10 10 10 11 12 13 15 16 17 18 20 21 22 23 23 24 24 25 25 26 27 27 28 29 29 29 28 28 28 28 29 28 28 27 26 26 27 27 27 26 24 24 24 25 26 27 28 29 30 31 31 29 25 22 21 20 20 21
6 6 7 7 8 9 10 11 12 12 12 12 12 13 13 14 15 16 17 18 20 21 22 23 24 25 25 25 25 25 25 25 25 25 26 27 28 29 29 29 29 29 28 28 27 26 26 26 26 26 26 25 24 25 26 27 28 28 28 29 28 28 27 25 24 22 20 20 20
7 8 8 8 9 10 12 13 13 14 14 15 15 15 16 16 17 18 19 21 22 23 24 25 25 25 25 25 25 25 25 24 24 23 24 25 26 27 28 28 28 27 27 26 26 25 25 25 25 25 25 24 24 25 26 27 28 27 27 26 26 26 26 26 26 26 24 23 23
7 8 8 9 10 11 12 13 14 14 15 15 16 17 18 18 19 20 21 23 24 25 25 26 26 26 26 26 26 26 26 25 25 24 23 24 24 25 26 26 26 25 24 24 24 24 23 23 23 23 23 23 24 24 25 26 26 25 25 25 25 25 25 25 26 27 27 26 27
5 6 6 7 8 9 10 11 12 13 14 15 16 17 17 18 19 19 20 21 23 23 24 25 25 25 26 26 27 27 27 26 26 25 24 24 24 24 24 24 24 23 22 22 22 22 22 22 22 23 23 23 24 24 24 24 23 23 24 25 25 25 25 25 26 27 27 28 30
3 3 4 4 5 6 7 8 9 10 11 12 13 14 14 15 16 17 18 18 19 21 22 23 24 24 25 26 27 27 28 27 26 25 24 24 24 23 23 23 22 22 21 21 21 21 21 22 23 23 23 24 24 24 23 23 22 23 24 24 25 25 25 26 27 28 29 30 32
3 3 3 4 5 5 6 7 8 9 10 11 12 12 13 14 15 16 17 17 18 19 20 22 23 24 25 26 26 27 27 27 27 26 24 24 23 23 23 22 22 21 20 20 21 21 22 23 24 24 24 24 24 23 23 23 23 23 24 25 25 26 26 27 28 30 31 32 32
5 5 6 6 7 7 8 9 10 10 11 12 13 13 14 15 15 16 17 17 18 19 20 21 22 24 24 25 26 26 26 27 26 26 25 24 23 23 23 22 21 21 20 20 21 22 23 24 24 24 24 23 24 24 25 25 25 25 25 26 27 27 28 29 30 31 32 32 31
6 7 7 8 8 9 10 11 11 12 13 14 15 15 16 16 17 17 17 18 18 19 19 20 21 23 24 24 25 25 26 26 26 26 25 25 24 24 24 23 23 22 22 22 22 23 24 24 24 24 24 24 24 24 25 26 27 27 27 28 29 30 30 31 32 32 32 31 29
6 6 7 8 8 9 10 11 11 12 13 14 15 16 17 17 18 18 19 19 19 20 20 20 21 22 23 24 24 24 25 25 26 26 26 26 25 25 25 25 25 25 25 24 24 24 24 24 24 24 24 24 25 25 26 27 28 28 28 29 30 31 32 32 33 33 33 31 29
5 6 6 7 8 8 9 10 11 11 12 13 14 15 16 17 18 19 19 20 20 21 21 21 21 22 22 23 24 24 24 24 25 26 27 27 27 27 27 28 28 28 28 28 27 27 26 26 26 26 26 26 26 26 27 27 28 28 29 30 30 31 31 32 33 33 32 30 28
5 5 6 7 7 8 9 9 10 11 11 12 13 14 15 16 17 18 19 20 21 21 22 22 22 22 23 23 24 24 24 24 25 25 26 28 28 28 29 30 31 31 32 32 32 31 30 30 29 29 29 29 29 29 29 29 29 29 29 30 31 31 31 31 31 31 30 29 29
6 6 7 8 8 9 9 10 11 11 12 12 13 14 14 15 16 17 18 19 20 21 22 22 23 23 23 24 24 25 25 25 25 25 26 27 28 29 30 31 32 33 34 35 35 35 35 34 34 33 33 33 33 32 32 31 31 31 31 31 31 31 31 32 32 32 32 32 33
7 8 9 9 10 11 11 12 12 13 13 14 14 15 15 16 16 17 18 18 19 20 21 22 23 23 24 25 25 25 26 26 26 26 26 27 27 28 30 31 32 33 34 35 36 37 37 37 36 36 36 35 35 35 34 34 34 34 34 33 33 32 32 32 33 34 35 35 36
8 9 10 11 12 12 13 14 14 14 15 15 16 16 17 17 17 18 18 19 19 20 21 21 22 23 24 25 26 26 27 27 27 27 27 27 28 28 29 30 31 32 33 34 35 36 37 37 37 36 36 36 36 36 36 36 36 36 36 36 36 35 34 34 34 34 35 36 36
10 10 11 12 13 13 14 14 15 15 16 16 17 17 17 18 18 18 19 19 20 20 21 21 22 23 23 24 25 26 27 28 28 28 28 29 29 29 30 31 31 32 33 34 35 36 36 36 35 35 34 34 34 34 35 35 36 37 37 37 37 37 36 36 35 35 35 35 35
11 11 12 13 13 14 14 15 15 16 16 16 17 17 17 18 18 19 19 19 20 20 21 21 22 22 23 24 25 26 27 28 29 29 29 30 30 31 31 32 32 32 33 33 34 35 36 35 35 34 33 32 32 32 32 33 34 35 36 36 37 37 36 36 36 35 35 35 35
12 13 13 14 15 15 15 16 16 16 16 17 17 17 17 18 18 19 19 19 20 20 21 21 22 22 23 23 24 26 27 28 28 29 30 30 31 32 32 33 33 33 33 33 34 34 35 35 34 34 33 31 31 30 31 31 32 33 34 34 35 35 35 35 35 35 35 35 35
14 15 16 16 17 17 17 18 18 18 18 18 18 18 18 18 18 19 19 19 19 20 20 21 21 22 22 23 24 25 26 27 28 29 30 30 31 32 32 33 34 34 34 34 34 34 34 34 34 33 33 32 31 31 31 31 31 32 32 33 33 34 34 34 35 35 35 36 36
17 17 18 19 20 20 20 20 20 20 20 20 20 20 20 20 20 20 20 20 20 20 20 21 21 21 22 23 23 24 25 26 27 28 29 30 31 31 32 33 34 35 35 36 36 36 35 34 33 33 32 32 32 31 31 32 32 32 33 33 34 34 34 35 35 36 36 36 36
19 20 20 21 22 22 23 23 23 23 23 23 23 23 22 22 22 22 22 22 22 22 21 22 22 22 22 23 23 24 25 26 27 28 29 30 31 31 32 33 34 35 36 37 37 37 37 35 34 33 32 32 32 32 32 32 32 33 33 34 34 35 35 35 36 36 36 37 37
21 21 22 23 23 24 24 25 25 25 26 26 26 26 26 26 26 26 25 25 25 25 24 24 24 24 24 24 24 25 25 26 26 27 28 29 30 31 32 33 34 36 37 37 38 38 38 37 36 35 34 33 32 32 32 32 32 33 34 34 34 35 35 35 36 36 36 37 37
23 24 24 25 25 25 26 26 27 27 28 28 28 29 29 29 29 29 29 29 29 29 29 29 28 27 27 27 26 26 27 27 27 28 28 29 30 31 32 33 35 36 37 37 38 38 39 38 38 37 36 34 33 32 32 32 32 33 33 34 34 34 35 35 35 35 36 36 37
25 25 26 26 27 27 28 28 28 29 29 30 30 31 31 32 32 32 32 33 33 33 33 33 32 32 31 30 30 29 29 29 29 29 29 30 30 31 32 33 34 36 37 38 38 39 39 38 38 37 36 35 34 33 33 33 33 33 33 33 33 34 34 34 35 35 35 36 36
26 26 27 27 27 28 28 29 29 30 30 31 31 32 32 33 33 34 34 34 35 35 35 36 36 35 35 34 33 33 32 31 30 30 30 31 31 31 32 33 34 35 36 38 39 39 39 39 38 36 35 34 34 34 34 35 35 34 33 33 33 33 34 34 35 35 35 36 36
26 26 26 27 27 28 28 29 29 30 30 31 31 31 32 33 33 34 34 34 35 35 36 36 37 37 37 37 36 35 34 33 33 32 32 32 32 32 33 33 34 34 35 37 38 39 40 39 38 36 35 34 34 34 35 35 35 34 33 33 32 33 33 34 34 35 35 35 36
25 26 26 26 27 27 27 28 28 29 29 29 30 30 31 31 32 32 33 33 34 34 35 35 36 36 37 37 37 36 36 35 35 34 33 33 33 33 33 34 34 34 35 36 37 39 40 40 39 37 35 34 34 34 34 34 34 34 33 33 33 33 33 34 34 34 34 35 35
25 25 26 26 26 26 27 27 27 27 28 28 28 29 29 30 30 31 31 32 32 33 33 34 35 35 36 36 36 36 36 36 35 35 35 34 34 34 34 35 35 35 35 36 37 38 39 40 39 38 36 34 34 33 34 34 34 34 33 33 33 33 33 34 34 34 35 35 35
25 26 26 26 26 26 27 27 27 27 28 28 28 29 29 29 30 30 30 31 31 32 32 33 34 35 35 35 35 35 35 35 35 35 35 35 35 35 35 35 35 36 36 37 37 37 38 39 40 39 37 35 34 33 33 34 34 34 34 34 34 34 34 34 34 34 35 35 35
26 26 27 27 27 28 28 28 28 29 29 29 30 30 30 31 31 31 32 32 32 33 33 34 34 35 35 36 36 36 35 35 35 34 34 35 35 35 35 35 36 36 37 37 38 38 38 39 39 39 38 36 35 34 34 34 34 34 35 34 34 34 33 33 33 34 34 34 34
28 28 28 29 29 29 30 30 30 31 31 31 32 32 33 33 33 34 34 34 35 35 35 36 36 36 37 37 37 37 36 36 35 35 34 34 35 35 36 36 36 36 37 37 38 38 38 38 39 39 39 37 36 35 34 34 35 35 35 35 34 34 33 33 33 33 33 33 33
29 29 30 30 31 31 32 32 32 32 33 33 33 34 34 35 35 35 35 36 36 36 37 37 37 38 38 38 39 38 38 38 37 36 35 35 35 35 36 36 37 37 37 38 38 39 39 39 39 39 39 38 37 36 35 34 35 35 35 35 35 35 34 33 33 33 32 32 32
31 31 32 32 33 33 33 33 34 34 34 34 34 35 35 35 36 36 36 36 36 37 37 37 37 38 38 38 39 39 39 39 38 37 36 36 35 36 36 37 37 37 37 38 38 39 39 39 39 39 39 38 37 36 36 35 35 36 36 36 36 36 35 35 34 33 33 32 32
32 33 33 34 34 34 34 35 35 35 35 35 35 35 35 35 35 36 36 36 37 37 37 37 38 38 38 38 39 39 40 40 40 39 38 37 36 36 36 37 37 37 37 38 38 39 39 39 39 39 39 38 38 38 37 37 37 37 37 38 38 37 37 36 35 35 34 34 33
33 34 34 34 35 35 35 35 35 35 35 35 35 35 35 35 35 36 36 36 37 37 37 38 38 38 38 38 39 39 39 39 40 40 39 38 37 37 37 37 37 37 37 37 38 39 39 40 40 39 39 39 39 39 38 38 38 38 38 39 39 39 38 37 37 36 36 35 34
33 33 34 34 34 34 34 34 35 35 35 35 35 35 35 35 35 35 35 36 36 36 37 38 38 38 38 38 39 39 39 40 40 40 40 39 38 38 37 37 37 37 37 37 37 38 39 40 40 40 40 40 40 40 40 40 40 40 39 40 40 40 39 39 38 38 38 37 36
32 32 33 33 33 33 34 34 34 34 34 34 34 34 34 35 35 35 35 35 35 36 37 37 38 38 39 39 39 40 40 40 40 40 40 39 39 38 38 38 38 37 37 37 37 38 39 39 40 40 40 41 40 40 40 41 41 41 40 40 40 40 40 40 39 39 39 38 37
31 31 31 32 32 32 32 33 33 33 33 34 34 34 34 34 34 34 34 34 34 35 35 36 37 38 38 39 39 40 41 41 40 40 40 39 39 38 38 38 38 38 37 37 37 37 38 39 40 40 41 41 41 41 41 41 41 41 41 41 41 41 41 40 40 40 40 40 39
29 30 30 30 31 31 31 32 32 32 32 33 33 33 33 33 33 33 33 33 33 33 34 35 36 37 38 38 39 40 41 41 40 40 40 39 39 38 38 38 39 38 38 37 37 37 37 38 39 40 41 41 41 41 41 41 41 42 42 42 42 42 41 41 41 40 40 40 39
29 29 29 30 30 30 31 31 31 31 31 32 32 32 32 32 32 32 32 31 31 31 32 33 35 36 37 37 38 39 39 40 40 40 40 39 39 39 38 38 39 39 38 38 37 36 36 37 38 39 40 41 41 41 41 41 42 42 43 43 43 43 42 42 41 41 41 40 40
Wind_Direction
232 229 229 234 237 241 244 246 247 249 253 256 259 259 256 253 251 250 251 254 257 260 262 264 265 267 269 272 274 277 278 280 280 280 279 277 276 276 277 279 280 281 280 279 276 273 272 272 272 271 265 257 249 246 247 247 246 242 239 237 238 239 241 244 248 251 251 250 248
238 233 232 239 247 251 254 256 256 256 255 255 256 257 258 258 258 259 261 263 266 268 270 271 272 272 273 275 276 278 279 280 281 281 281 280 278 277 277 278 279 281 282 282 279 275 272 270 271 271 267 259 251 246 246 246 247 246 245 244 243 241 241 243 247 252 255 255 255
255 252 250 252 258 262 265 265 264 263 263 261 260 260 261 261 261 262 264 265 267 268 270 271 273 274 275 277 278 280 281 281 282 282 282 281 279 278 277 277 278 279 281 281 279 276 271 268 267 267 265 261 253 248 246 246 246 246 246 245 244 242 241 241 244 247 252 258 265
274 273 270 269 269 271 272 272 272 271 271 270 270 269 268 266 264 264 265 266 267 268 269 270 272 274 276 278 280 282 284 286 287 286 284 281 279 277 276 275 275 276 277 278 277 273 269 265 263 262 261 259 254 249 245 244 244 242 241 240 239 238 237 238 240 242 244 247 256
282 282 281 280 279 278 278 279 279 280 280 280 279 278 277 276 275 274 274 274 273 272 272 272 274 275 277 279 280 282 285 287 289 289 287 283 280 277 274 273 272 272 272 273 272 269 266 264 260 258 256 254 252 249 245 242 239 237 236 236 235 235 234 235 236 237 238 240 246
287 287 287 286 285 284 283 283 283 284 285 286 287 287 287 287 287 287 287 286 285 283 281 279 279 279 280 280 281 282 283 285 287 288 287 285 282 279 276 274 271 269 268 266 266 265 265 264 263 259 255 251 249 248 245 241 236 233 233 233 233 234 234 234 234 235 236 239 245
302 297 294 291 288 286 285 285 285 287 288 290 292 293 295 296 296 296 296 295 293 292 290 288 286 284 283 282 281 281 282 283 284 285 284 283 281 279 277 275 272 269 265 262 261 261 262 264 265 263 260 256 252 249 245 242 237 234 233 232 232 232 233 233 235 236 238 241 247
338 327 317 310 305 302 300 299 298 298 298 298 298 299 300 300 300 299 298 297 296 295 294 293 291 289 287 285 284 282 282 281 281 281 281 279 277 276 275 274 271 268 264 261 259 259 261 263 265 265 264 261 256 251 247 245 242 239 236 234 233 233 233 234 236 237 240 244 248
339 332 327 322 318 315 312 310 309 307 306 304 304 303 303 302 301 300 300 299 298 296 295 294 293 292 291 289 288 286 284 283 281 280 277 275 273 271 270 269 267 265 263 260 259 259 261 263 265 265 265 263 260 257 254 251 249 246 243 240 239 238 237 237 238 239 242 246 249
333 327 323 320 317 314 311 309 307 306 305 304 303 302 301 300 300 299 298 297 296 295 295 295 295 295 294 293 292 290 288 286 283 280 277 273 269 266 264 263 262 261 260 259 259 260 262 263 263 263 262 261 260 259 258 256 255 253 250 247 246 245 244 243 242 243 246 248 250
328 322 318 314 311 308 305 304 302 301 300 300 300 299 299 298 297 296 295 294 294 294 294 294 294 295 295 295 294 293 291 289 287 284 280 275 270 265 262 260 258 258 258 259 260 261 262 262 262 261 260 260 260 259 259 259 258 257 255 253 252 251 250 248 247 247 248 249 251
326 318 313 309 306 303 301 299 298 297 296 296 296 296 296 296 295 295 294 294 293 293 293 292 293 293 294 295 294 294 292 290 289 287 285 282 276 270 265 261 259 258 259 260 261 261 262 261 261 261 262 262 261 261 260 260 260 259 259 258 258 257 255 253 252 251 250 250 252
322 316 312 309 306 304 302 300 298 297 296 296 295 295 295 295 294 294 294 294 294 293 293 292 292 292 292 292 293 293 293 292 290 288 287 285 282 278 272 267 264 262 262 262 262 262 262 261 261 262 263 263 263 262 262 261 261 260 260 260 261 260 260 259 257 256 255 254 256
319 316 314 312 310 308 306 304 303 301 300 299 298 297 296 296 295 295 295 294 294 294 293 293 292 292 292 291 291 292 292 292 291 289 288 286 284 282 279 275 271 268 266 265 265 265 264 264 263 263 263 264 264 263 263 262 261 261 261 261 261 261 260 260 260 260 260 260 261
318 317 316 314 313 311 310 308 306 305 303 302 301 299 298 298 297 297 296 295 295 295 294 294 294 293 292 292 291 291 291 291 291 290 289 287 285 283 282 279 277 274 271 270 268 267 267 266 266 265 265 264 264 264 263 262 262 262 262 262 261 261 260 260 260 261 262 262 263
318 317 317 316 315 314 312 310 309 307 305 304 302 300 299 299 298 298 298 297 297 296 296 295 295 294 293 293 292 292 292 291 291 291 290 289 287 286 284 282 279 277 275 273 272 270 269 268 267 266 265 265 264 263 262 261 261 261 262 262 262 262 261 260 260 261 262 263 263
317 316 316 316 315 314 313 311 310 308 306 304 303 301 300 299 298 298 298 298 298 297 297 296 296 296 295 294 293 293 292 292 292 291 291 290 289 288 286 284 281 279 276 275 273 272 271 270 269 267 265 264 263 262 261 260 259 259 260 261 261 261 261 261 261 262 262 263 264
315 315 315 314 314 313 311 310 309 308 306 305 303 302 300 299 298 297 297 297 297 297 296 296 296 296 296 296 295 293 292 292 292 291 291 290 290 289 288 286 284 281 278 275 273 272 271 270 269 267 266 264 262 260 259 258 258 258 258 259 260 260 260 261 261 262 262 263 264
315 314 314 313 313 312 311 309 308 307 306 305 303 302 301 300 299 298 297 297 296 296 296 295 295 296 296 296 296 295 293 292 292 291 290 290 289 289 288 287 285 283 280 277 275 272 271 270 268 267 265 263 261 259 258 258 257 257 257 258 259 259 260 260 261 262 263 263 264
315 314 313 313 312 311 310 309 308 307 306 305 304 303 302 301 300 300 299 298 298 298 297 297 296 296 296 295 295 295 294 293 292 291 290 289 288 287 287 286 285 283 282 279 277 275 273 270 268 266 264 262 261 260 259 258 258 258 258 258 259 259 260 261 262 263 263 264 265
313 312 312 311 310 309 308 307 307 306 305 304 303 302 302 302 301 301 301 300 300 300 299 299 299 298 297 296 296 296 295 294 293 292 291 290 288 287 286 284 283 282 281 280 279 278 276 274 271 268 265 263 262 261 260 260 260 259 259 259 260 260 261 262 263 264 265 265 266
309 308 308 307 306 305 305 304 303 303 302 301 301 300 300 300 300 300 300 301 301 301 301 300 300 300 299 299 298 298 297 296 294 293 292 291 289 287 286 284 282 281 280 280 280 279 278 277 275 272 269 267 265 264 263 263 263 262 262 262 262 262 262 263 264 265 265 266 267
305 304 303 302 301 301 300 299 299 298 298 298 297 297 297 298 298 298 299 299 299 299 299 299 299 299 300 300 300 300 299 298 297 295 294 292 290 288 286 284 282 281 279 278 278 278 277 276 276 275 273 272 270 269 268 267 266 265 265 264 264 264 264 264 264 265 265 266 266
301 300 299 298 297 296 296 295 295 294 294 294 294 294 294 295 295 296 296 297 297 298 298 297 297 297 298 298 299 299 300 299 299 298 297 295 293 290 288 285 283 281 279 278 277 276 275 275 275 275 275 274 274 273 272 270 269 268 268 267 266 265 265 264 264 264 264 265 265
298 297 296 295 295 294 293 293 292 292 292 292 292 292 292 292 293 293 294 294 295 296 296 296 296 296 296 296 296 297 297 298 298 298 298 297 295 293 290 287 285 282 280 278 277 276 275 274 273 273 274 275 275 275 275 274 273 272 270 269 268 266 265 264 264 263 263 264 264
296 296 295 294 294 293 293 293 292 292 292 291 291 291 291 291 291 292 292 293 293 294 294 295 295 295 295 295 294 294 294 295 295 296 296 296 295 293 291 289 287 284 282 280 278 276 275 274 273 273 273 274 275 276 276 276 275 274 273 271 269 267 265 264 264 263 263 263 263
297 297 296 295 295 295 295 294 294 293 293 293 293 293 292 292 292 292 292 293 293 293 293 294 294 294 294 294 294 293 293 292 292 292 293 293 293 292 290 290 289 287 285 282 280 278 276 274 273 272 272 273 274 275 276 276 276 276 274 271 269 267 265 264 263 262 262 262 263
300 299 299 298 298 297 297 296 296 296 296 295 295 295 294 294 294 294 294 294 294 294 294 294 294 294 294 294 293 293 293 292 291 290 290 290 290 289 289 289 289 289 287 285 282 280 277 275 273 272 271 272 273 274 275 276 276 275 273 271 269 267 265 263 262 261 260 260 261
303 302 301 301 300 300 299 299 299 298 298 298 297 297 297 296 296 296 296 296 295 295 295 295 295 294 294 294 294 294 293 292 291 290 289 288 288 287 287 287 288 289 288 286 284 281 279 276 274 272 271 271 272 273 274 274 274 273 272 271 269 267 265 263 262 260 259 258 258
305 305 304 304 303 303 303 302 302 302 301 301 301 301 300 300 300 299 299 299 299 298 298 298 297 297 296 296 295 295 294 293 292 290 288 287 286 285 285 285 286 286 286 285 284 282 280 277 275 272 270 270 270 272 272 273 273 272 272 271 270 268 267 264 262 260 259 258 258
307 307 307 307 307 307 306 306 306 305 305 305 305 305 304 304 304 304 304 304 303 302 302 301 301 300 299 298 297 297 296 294 293 291 289 287 285 284 284 283 283 283 283 283 283 282 281 278 275 272 270 268 268 269 270 271 272 272 271 270 270 269 267 266 264 262 260 259 259
310 310 310 310 310 309 309 308 308 308 308 308 308 307 307 307 307 307 306 306 306 305 305 304 304 303 302 301 300 299 297 296 295 293 291 288 286 283 282 281 281 281 281 281 281 281 280 279 276 273 270 268 266 267 268 269 270 270 270 270 269 269 268 267 265 264 262 261 261
312 312 312 312 311 310 310 310 309 309 309 308 308 307 307 307 306 306 305 305 305 304 304 304 303 303 303 302 301 300 299 298 297 296 294 291 288 285 282 280 279 279 279 279 279 280 280 279 277 273 270 267 266 265 266 267 268 269 269 268 268 268 268 267 266 265 264 264 263
314 314 313 312 311 311 310 309 309 308 307 306 306 305 305 304 303 303 302 302 301 300 300 300 300 300 299 299 299 299 298 298 297 297 295 293 290 287 284 281 279 279 279 279 279 279 279 278 277 274 271 267 265 264 264 265 266 266 266 266 266 266 266 267 267 266 266 265 265
315 315 313 312 311 310 309 308 307 306 305 304 303 302 301 301 300 299 299 298 297 297 296 296 295 295 295 296 296 296 297 297 297 296 296 294 292 289 285 282 280 279 279 279 279 279 279 278 277 275 271 267 264 263 262 263 263 264 264 264 264 264 264 265 265 266 266 265 265
315 314 313 311 310 308 307 306 305 304 303 301 300 300 299 298 298 297 297 297 296 296 295 294 294 294 294 294 294 294 295 295 296 296 295 294 293 290 287 284 281 280 279 279 279 279 278 278 277 275 272 267 263 261 260 261 261 262 262 262 262 262 262 263 263 264 264 264 265
314 313 311 310 309 307 306 306 305 303 302 301 301 300 300 299 299 298 297 297 297 297 296 295 295 294 294 294 294 293 293 294 294 295 294 294 292 290 288 285 283 280 279 279 279 278 278 278 277 275 272 267 263 260 259 259 260 260 260 260 261 261 261 261 262 263 263 263 264
313 312 311 310 309 308 307 307 306 306 305 305 304 304 303 303 302 301 300 300 300 299 298 297 296 295 294 294 293 293 292 292 293 293 293 293 291 290 288 285 283 280 279 278 278 278 278 278 277 275 272 268 264 261 259 258 259 259 260 260 259 260 260 261 261 262 262 262 263
313 313 312 312 312 311 311 311 310 310 310 309 309 308 307 306 305 304 303 302 301 301 300 298 297 296 295 295 294 293 293 292 292 292 292 292 291 289 287 284 282 280 278 277 276 276 276 277 276 275 272 269 265 261 259 258 258 259 259 259 259 259 259 260 261 262 262 262 262
315 315 315 315 315 315 315 315 314 314 313 313 312 311 310 309 307 306 305 304 303 302 300 299 298 297 296 296 296 295 294 293 293 292 292 292 291 289 287 284 282 279 277 275 275 275 275 275 275 275 273 270 266 262 260 258 258 259 259 259 258 258 258 259 260 261 262 262 262
318 318 319 319 319 318 318 317 316 315 314 314 313 312 311 310 309 308 306 305 303 301 299 298 297 297 297 297 297 296 296 296 295 294 293 293 292 290 288 285 283 280 277 275 274 274 274 274 274 274 272 270 266 263 260 258 258 258 258 258 258 258 258 259 260 260 261 262 262